Redding, CA

12:11 AM PDT on June 19, 2018 (GMT -0700)
Redding Municipal

Weather History for KRDD - October, 2017

Change the Weather History Date:

Saturday, October 7, 2017

  Actual Average Record
Temperature  
Mean Temperature 69 °F -  
Max Temperature 89 °F 83 °F 100 °F (1996)
Min Temperature 49 °F 52 °F 41 °F (1997)
Degree Days  
Heating Degree Days 0    
Cooling Degree Days 4    
Growing Degree Days 18 (Base 50)    
Moisture  
Dew Point 36 °F    
Average Humidity 38    
Maximum Humidity 61    
Minimum Humidity 15    
Precipitation  
Precipitation 0.00 in 0.04 in 0.00 in (2018)
Month to date precipitation 0.00 0.23  
Year to date precipitation 29.01 22.00  
Sea Level Pressure  
Sea Level Pressure 29.86 in    
Wind  
Wind Speed 3 mph (NNW)    
Max Wind Speed 12 mph    
Max Gust Speed 13 mph    
Visibility 10 miles    
Events      
T = Trace of Precipitation, MM = Missing Value Source: NWS Daily Summary

Daily Weather History Graph

Daily Weather History Graph

Search for Another Location

Airport or City:

Astronomy

Oct. 07, 2017 Rise Set
Actual Time 7:12 AM PDT 6:40 PM PDT
Civil Twilight 6:44 AM PDT 7:08 PM PDT
Nautical Twilight 6:13 AM PDT 7:39 PM PDT
Astronomical Twilight 5:41 AM PDT 8:11 PM PDT
Moon 8:22 PM PDT (10/7) 9:12 AM PDT (10/7)
Length of Visible Light 12h 23m
Length of Day
11h 28m
Waning Gibbous, 95% of the Moon is Illuminated
Oct 7
Waning Gibbous
Oct 12
Last Quarter
Oct 19
New
Oct 27
First Quarter
Nov 3
Full

Hourly Weather History & Observations

Time (PDT) Temp. Dew Point Humidity Pressure Visibility Wind Dir Wind Speed Gust Speed Precip Events Conditions
12:53 AM 59.0 °F 36.0 °F 42% 29.95 in 10.0 mi WNW 4.6 mph - N/A   Clear
1:53 AM 57.0 °F 36.0 °F 45% 29.96 in 10.0 mi Calm Calm - N/A   Clear
2:53 AM 54.0 °F 35.1 °F 49% 29.95 in 10.0 mi North 3.5 mph - N/A   Clear
3:53 AM 54.0 °F 37.0 °F 53% 29.95 in 10.0 mi Calm Calm - N/A   Clear
4:53 AM 52.0 °F 36.0 °F 54% 29.95 in 10.0 mi Calm Calm - N/A   Clear
5:53 AM 51.1 °F 36.0 °F 56% 29.94 in 10.0 mi Calm Calm - N/A   Clear
6:53 AM 50.0 °F 37.9 °F 63% 29.94 in 10.0 mi Calm Calm - N/A   Clear
7:53 AM 51.1 °F 37.9 °F 61% 29.95 in 10.0 mi Calm Calm - N/A   Clear
8:53 AM 59.0 °F 39.0 °F 48% 29.95 in 10.0 mi Calm Calm - N/A   Clear
9:53 AM 69.1 °F 35.1 °F 29% 29.94 in 10.0 mi NNE 4.6 mph - N/A   Clear
10:53 AM 75.0 °F 34.0 °F 22% 29.92 in 10.0 mi North 4.6 mph - N/A   Clear
11:53 AM 79.0 °F 33.1 °F 19% 29.90 in 10.0 mi ENE 3.5 mph - N/A   Clear
12:53 PM 82.0 °F 35.1 °F 18% 29.87 in 10.0 mi Calm Calm - N/A   Clear
1:53 PM 84.0 °F 35.1 °F 17% 29.83 in 10.0 mi Variable 3.5 mph - N/A   Clear
2:53 PM 86.0 °F 34.0 °F 16% 29.81 in 10.0 mi Calm Calm - N/A   Clear
3:53 PM 87.1 °F 34.0 °F 15% 29.78 in 10.0 mi Variable 6.9 mph - N/A   Clear
4:53 PM 87.1 °F 36.0 °F 16% 29.76 in 10.0 mi South 8.1 mph - N/A   Clear
5:53 PM 84.9 °F 35.1 °F 17% 29.75 in 10.0 mi SSE 9.2 mph - N/A   Clear
6:53 PM 79.0 °F 37.9 °F 23% 29.75 in 10.0 mi SSE 3.5 mph - N/A   Clear
7:53 PM 75.0 °F 37.9 °F 26% 29.75 in 10.0 mi West 5.8 mph - N/A   Clear
8:53 PM 70.0 °F 39.0 °F 32% 29.75 in 10.0 mi West 4.6 mph - N/A   Clear
9:53 PM 66.9 °F 37.9 °F 34% 29.77 in 10.0 mi North 3.5 mph - N/A   Clear
10:53 PM 64.9 °F 39.9 °F 40% 29.78 in 10.0 mi NNW 3.5 mph - N/A   Clear
11:53 PM 63.0 °F 39.0 °F 41% 29.81 in 10.0 mi North 6.9 mph - N/A   Clear